Location: Unspecified
(0.0000°N, 0.0000°E)
Time: 23:42:55
(UTC+00:00)

Vanguard 1 - Pass Details

Date: 09 February 2018
Orbit: 650 x 3833 km, 34.3° (Epoch: 26 May)

Event Time Altitude Azimuth Distance (km) Brightness Sun altitude
Exits shadow 00:57:14 13° 102° (ESE) 4,748 13.6 -71.8°
Drops below altitude 10° 00:58:40 10° 105° (ESE) 5,151 13.8 -71.6°
Sets 01:04:19 0° 112° (ESE) 6,710 14.6 -70.7°
